This demonstration page uses our WeatherBlox Daily Observations layout. Learn more.

39.92423, -83.80882

Hourly Observations for December 29, 2018

Temp ( °F °C ) Dew Point ( °F °C ) Humidity (%) Winds ( mph kmh ) Pressure ( in mb ) Visibility ( mi km ) Precip ( " mm )
12:56 am 00:56 Cloudy 32 0 29 -1.7 88 88 WNW 10 17 30.14 1021 10 16.0934 0 0
1:56 am 01:56 Cloudy 32 0 29 -1.7 88 88 WNW 13 20 30.16 1021 10 16.0934 0 0
2:56 am 02:56 Cloudy 32 0 29 -1.7 88 88 W 17 28 30.19 1022 10 16.0934 0 0
3:27 am 03:27 Cloudy 32 0 28 -2 87 87 WNW 16 26 30.24 1024 10 16.0934 0 0
3:56 am 03:56 Cloudy 32 0 28 -2.2 85 85 W 15 24 30.21 1023 10 16.0934 0 0
4:56 am 04:56 Cloudy 32 0 28 -2.2 85 85 W 16 26 30.22 1023 10 16.0934 0 0
5:56 am 05:56 Cloudy 32 0 28 -2.2 85 85 W 13 20 30.25 1024 10 16.0934 0 0
6:56 am 06:56 Cloudy 32 0 28 -2.2 85 85 W 9 15 30.28 1025 10 16.0934 0 0
7:56 am 07:56 Cloudy 32 0 28 -2.2 85 85 W 9 15 30.31 1026 10 16.0934 0 0
8:56 am 08:56 Cloudy 32 0 27 -2.8 82 82 W 9 15 30.34 1027 10 16.0934 0 0
9:56 am 09:56 Cloudy 32 0 28 -2.2 85 85 WSW 12 19 30.35 1028 10 16.0934 0 0
10:56 am 10:56 Cloudy 32 0 28 -2.2 85 85 W 13 20 30.37 1028 10 16.0934 0 0
11:56 am 11:56 Cloudy 32 0 29 -1.7 88 88 WNW 8 13 30.33 1027 10 16.0934 0 0
12:56 pm 12:56 Cloudy 33 0.6 28 -2.2 82 82 W 6 9 30.3 1026 10 16.0934 0 0
1:56 pm 13:56 Cloudy 33 0.6 27 -2.8 78 78 WSW 7 11 30.3 1026 10 16.0934 0 0
2:56 pm 14:56 Cloudy 33 0.6 27 -2.8 78 78 WSW 5 7 30.3 1026 10 16.0934 0 0
3:56 pm 15:56 Cloudy 34 1.1 28 -2.2 79 79 W 5 7 30.31 1027 10 16.0934 0 0
4:56 pm 16:56 Cloudy 33 0.6 28 -2.2 82 82 WSW 6 9 30.32 1027 10 16.0934 0 0
5:56 pm 17:56 Cloudy 33 0.6 28 -2.2 82 82 Calm 30.3 1026 10 16.0934 0 0
6:56 pm 18:56 Cloudy 33 0.6 28 -2.2 82 82 S 5 7 30.29 1026 10 16.0934 0 0
7:56 pm 19:56 Cloudy 33 0.6 28 -2.2 82 82 SSW 3 6 30.27 1025 10 16.0934 0 0
8:56 pm 20:56 Cloudy 33 0.6 28 -2.2 82 82 SW 6 9 30.28 1025 10 16.0934 0 0
9:56 pm 21:56 Cloudy 32 0 29 -1.7 88 88 S 5 7 30.25 1024 10 16.0934 0 0
10:56 pm 22:56 Cloudy 32 0 29 -1.7 88 88 SW 7 11 30.26 1025 10 16.0934 0 0
11:56 pm 23:56 Cloudy 33 0.6 28 -2.2 82 82 SSW 7 11 30.22 1023 10 16.0934 0 0

Powered by AerisWeather